This demonstration page uses our WeatherBlox Daily Observations layout. Learn more.

Left ArrowRight Arrow

39.51506, -84.39828

Hourly Observations for May 8, 2017

Temp ( °F °C ) Dew Point ( °F °C ) Humidity (%) Winds ( mph kmh ) Pressure ( in mb ) Visibility ( mi km ) Precip ( " mm )
12:15 am 00:15 Clear 43 6.3 24 -4.4 47 47 NNW 3 6 30.03 1017 10 16 0.00 0.00
12:35 am 00:35 Clear 42 5.6 25 -4.1 50 50 NNW 3 6 30.03 1017 10 16 0.00 0.00
12:55 am 00:55 Clear 42 5.8 24 -4.4 48 48 NW 5 7 30.06 1018 10 16 0.00 0.00
1:15 am 01:15 Clear 42 5.7 22 -5.6 44 44 Calm 30.06 1018 10 16 0.00 0.00
1:35 am 01:35 Clear 42 5.4 23 -4.9 48 48 NNW 3 6 30.06 1018 10 16 0.00 0.00
1:55 am 01:55 Clear 40 4.7 26 -3.5 56 56 Calm 30.06 1018 10 16 0.00 0.00
2:15 am 02:15 Clear 39 4 26 -3.4 59 59 Calm 30.09 1019 10 16 0.00 0.00
2:35 am 02:35 Clear 37 2.6 25 -3.7 64 64 Calm 30.09 1019 10 16 0.00 0.00
2:55 am 02:55 Clear 37 2.6 24 -4.2 61 61 NW 3 6 30.09 1019 10 16 0.00 0.00
3:15 am 03:15 Clear 39 4 19 -7.3 44 44 NW 6 9 30.09 1019 10 16 0.00 0.00
3:35 am 03:35 Clear 39 4 17 -8.2 41 41 NW 6 9 30.09 1019 10 16 0.00 0.00
3:55 am 03:55 Clear 39 4 18 -7.8 42 42 NW 5 7 30.09 1019 10 16 0.00 0.00
4:15 am 04:15 Clear 39 4 19 -7.3 44 44 NNW 5 7 30.09 1019 10 16 0.00 0.00
4:35 am 04:35 Clear 37 2.6 22 -5.5 56 56 NNE 3 6 30.09 1019 10 16 0.00 0.00
4:55 am 04:55 Clear 37 2.6 20 -6.5 52 52 Calm 30.12 1020 10 16 0.00 0.00
5:15 am 05:15 Clear 37 2.6 21 -5.9 54 54 Calm 30.12 1020 10 16 0.00 0.00
5:35 am 05:35 Clear 37 2.6 22 -5.5 56 56 Calm 30.12 1020 10 16 0.00 0.00
5:55 am 05:55 Clear 34 1.2 24 -4.6 66 66 Calm 30.12 1020 10 16 0.00 0.00
6:15 am 06:15 Clear 34 1.2 23 -4.9 64 64 Calm 30.15 1021 10 16 0.00 0.00
6:35 am 06:35 Sunny 34 1.2 26 -3.6 71 71 Calm 30.15 1021 10 16 0.00 0.00
6:55 am 06:55 Sunny 34 1.2 27 -2.9 74 74 Calm 30.15 1021 10 16 0.00 0.00
7:15 am 07:15 Sunny 34 1.2 28 -2.4 77 77 Calm 30.15 1021 10 16 0.00 0.00
7:35 am 07:35 Sunny 35 1.6 28 -2.4 75 75 Calm 30.15 1021 10 16 0.00 0.00
7:55 am 07:55 Sunny 39 4 29 -1.9 66 66 Calm 30.18 1022 10 16 0.00 0.00
8:15 am 08:15 Sunny 40 4.7 25 -4.1 53 53 S 3 6 30.18 1022 10 16 0.00 0.00
8:35 am 08:35 Sunny 43 5.9 23 -4.9 46 46 Calm 30.15 1021 10 16 0.00 0.00
8:55 am 08:55 Sunny 44 6.8 22 -5.6 41 41 Calm 30.15 1021 10 16 0.00 0.00
9:15 am 09:15 Sunny 47 8.5 19 -7.4 32 32 Calm 30.15 1021 10 16 0.00 0.00
9:35 am 09:35 Sunny 49 9.6 16 -8.9 26 26 Calm 30.15 1021 10 16 0.00 0.00
9:55 am 09:55 Sunny 49 9.6 18 -8 28 28 Calm 30.15 1021 10 16 0.00 0.00
10:15 am 10:15 Sunny 51 10.7 16 -8.7 25 25 S 5 7 30.15 1021 10 16 0.00 0.00
10:35 am 10:35 Sunny 55 12.5 10 -12 17 17 W 6 9 30.15 1021 10 16 0.00 0.00
10:55 am 10:55 Sunny 55 12.5 8 -13.2 15 15 W 7 11 30.15 1021 10 16 0.00 0.00
11:15 am 11:15 Sunny 55 12.6 9 -12.6 16 16 W 12 19 30.15 1021 10 16 0.00 0.00
11:35 am 11:35 Sunny 57 13.8 12 -11 17 17 W 9 15 30.18 1022 10 16 0.00 0.00
11:55 am 11:55 Sunny 57 13.8 11 -11.7 16 16 NW 7 11 30.15 1021 10 16 0.00 0.00
12:15 pm 12:15 Sunny 57 13.8 13 -10.5 18 18 NW 9 15 30.15 1021 10 16 0.00 0.00
12:35 pm 12:35 Sunny 57 14.1 13 -10.4 17 17 W 7 11 30.15 1021 10 16 0.00 0.00
12:55 pm 12:55 Sunny 60 15.3 19 -7.3 21 21 NW 10 17 30.15 1021 10 16 0.00 0.00
1:15 pm 13:15 Sunny 60 15.3 17 -8.6 19 19 WSW 12 19 30.15 1021 10 16 0.00 0.00
1:35 pm 13:35 Sunny 60 15.3 16 -8.7 18 18 W 14 22 30.15 1021 10 16 0.00 0.00
1:55 pm 13:55 Sunny 60 15.4 15 -9.5 17 17 WNW 9 15 30.12 1020 10 16 0.00 0.00
2:15 pm 14:15 Sunny 60 15.8 14 -10.1 16 16 NNW 6 9 30.12 1020 10 16 0.00 0.00
2:35 pm 14:35 Sunny 61 16 15 -9.2 17 17 WNW 6 9 30.12 1020 10 16 0.00 0.00
2:55 pm 14:55 Sunny 61 16.3 15 -9.6 16 16 W 9 15 30.06 1018 10 16 0.00 0.00
3:15 pm 15:15 Sunny 62 16.6 12 -11 14 14 NW 8 13 30.06 1018 10 16 0.00 0.00
3:35 pm 15:35 Sunny 62 16.7 10 -12.1 13 13 NW 9 15 30.06 1018 10 16 0.00 0.00
3:55 pm 15:55 Sunny 63 17.3 16 -8.8 16 16 WNW 13 20 30.06 1018 10 16 0.00 0.00
4:15 pm 16:15 Sunny 64 17.6 14 -10 14 14 NW 10 17 30.03 1017 10 16 0.00 0.00
4:35 pm 16:35 Sunny 64 17.6 15 -9.7 15 15 W 12 19 30.03 1017 10 16 0.00 0.00
4:55 pm 16:55 Sunny 64 17.7 16 -8.7 16 16 WNW 10 17 30.03 1017 10 16 0.00 0.00
5:15 pm 17:15 Sunny 64 18 15 -9.3 15 15 W 12 19 30.03 1017 10 16 0.00 0.00
5:35 pm 17:35 Sunny 64 18 16 -8.7 15 15 W 6 9 30.00 1016 10 16 0.00 0.00
5:55 pm 17:55 Sunny 64 18 16 -9 15 15 NW 7 11 30.00 1016 10 16 0.00 0.00
6:15 pm 18:15 Sunny 64 18 17 -8.2 16 16 WSW 8 13 30.00 1016 10 16 0.00 0.00
6:35 pm 18:35 Partly Cloudy 63 17.4 19 -7.4 18 18 W 6 9 30.00 1016 10 16 0.00 0.00
6:55 pm 18:55 Cloudy 62 16.6 21 -6.3 20 20 W 7 11 30.00 1016 10 16 0.00 0.00
7:15 pm 19:15 Cloudy 62 16.7 20 -6.8 19 19 W 8 13 30.00 1016 10 16 0.00 0.00
7:35 pm 19:35 Cloudy 61 16 25 -4 25 25 W 3 6 30.00 1016 10 16 0.00 0.00
7:55 pm 19:55 Cloudy 61 16 28 -2.4 28 28 WNW 3 6 30.00 1016 10 16 0.00 0.00
8:15 pm 20:15 Mostly Cloudy 61 16 31 -0.8 32 32 Calm 30.00 1016 10 16 0.00 0.00
8:35 pm 20:35 Mostly Cloudy 60 15.3 40 4.4 48 48 Calm 30.03 1017 10 16 0.00 0.00
8:55 pm 20:55 Cloudy 60 15.3 40 4.3 48 48 Calm 30.03 1017 10 16 0.00 0.00
9:15 pm 21:15 Cloudy 57 13.8 43 6.1 60 60 Calm 30.03 1017 10 16 0.00 0.00
9:35 pm 21:35 Cloudy 57 13.8 40 4.3 53 53 Calm 30.03 1017 10 16 0.00 0.00
9:55 pm 21:55 Cloudy 57 13.8 45 7.4 66 66 Calm 30.03 1017 10 16 0.00 0.00
10:15 pm 22:15 Cloudy 57 13.8 43 6.3 61 61 Calm 30.03 1017 10 16 0.00 0.00
10:35 pm 22:35 Cloudy 57 13.8 47 8.4 70 70 Calm 30.03 1017 10 16 0.00 0.00
10:55 pm 22:55 Cloudy 57 13.8 43 6.3 61 61 Calm 30.03 1017 10 16 0.00 0.00
11:15 pm 23:15 Cloudy 57 13.8 42 5.8 59 59 Calm 30.03 1017 10 16 0.00 0.00
11:35 pm 23:35 Cloudy with Light Rain 57 13.8 43 6.1 60 60 Calm 30.03 1017 10 16 0.00 0.00
11:55 pm 23:55 Cloudy with Light Rain 55 12.5 45 7 69 69 Calm 30.03 1017 10 16 0.00 0.00

Powered by AerisWeather